Powrót do katalogu

NOAA 16 DEB

AktywnyPO
NORAD 42396·DEBRIS·🇺🇸 United States

Wystrzelony Sep 21, 2000 z Vandenberg Space Force Base

Loading…

Następne Przeloty (najbliższe 24 godziny)

TLE

ŚwieżeSource: Space-Track

Epoka: Sep 12, 2026, 21:43 UTC

1 42396U 00055SQ  26255.90511384  .00006994  00000-0  14111-2 0  9993
2 42396  98.8059  55.8083 0025468 104.9174 255.4848 14.61577865550124

Śledź NOAA 16 DEB w czasie rzeczywistym z AllMySat

Download on the App Store